Location: Croissy-Beaubourg
(48.8283°N, 2.6696°E)
Time: 03:53:58
(UTC+00:00)

Cosmos 2082 - Pass Details

Date: 24 August 2022
Orbit: 832 x 856 km, 71.0° (Epoch: 29 September)

Event Time Altitude Azimuth Distance (km) Brightness Sun altitude
Rises 01:54:12 0° 332° (NNW) 3,413 7.2 -24.2°
Reaches altitude 10° 01:56:39 10° 333° (NNW) 2,478 6.5 -24.0°
Maximum altitude 02:02:22 83° 62° (ENE) 862 3.7 -23.5°
Enters shadow 02:06:25 20° 149° (SSE) 1,866 5.3 -23.1°
